This is the latest recevied weather packets stored in our database for station/object W0VI. If no packets are shown the sender has not sent any weather packets the latest 10 day(s).
| Time | Temp. | Humidity | Pressure | Rain* | Wind** | Luminosity | Snow |
|---|---|---|---|---|---|---|---|
| 1777757355 | 18.33° C | 34% | 1011.9 hPa | 0 mm | - | 208 W/m² | - |
| 1777757054 | 18.33° C | 33% | 1012 hPa | 0 mm | - | 206 W/m² | - |
| 1777756750 | 18.33° C | 34% | 1011.8 hPa | 0 mm | - | 188 W/m² | - |
| 1777756446 | 18.33° C | 33% | 1012 hPa | 0 mm | - | 186 W/m² | - |
| 1777756143 | 18.33° C | 33% | 1012.1 hPa | 0 mm | - | 300 W/m² | - |
| 1777755840 | 19.44° C | 31% | 1012.2 hPa | 0 mm | - | 206 W/m² | - |
| 1777755537 | 19.44° C | 32% | 1012.2 hPa | 0 mm | - | 485 W/m² | - |
| 1777755233 | 19.44° C | 33% | 1012.2 hPa | 0 mm | - | 526 W/m² | - |
| 1777754930 | 18.89° C | 34% | 1012.3 hPa | 0 mm | - | 569 W/m² | - |
| 1777754628 | 18.89° C | 33% | 1012.5 hPa | 0 mm | - | 530 W/m² | - |
| 1777754325 | 18.89° C | 34% | 1012.8 hPa | 0 mm | - | 504 W/m² | - |
| 1777754023 | 18.33° C | 34% | 1012.8 hPa | 0 mm | - | 554 W/m² | - |
| 1777753718 | 17.78° C | 34% | 1012.9 hPa | 0 mm | - | 569 W/m² | - |
| 1777753416 | 18.33° C | 34% | 1013.1 hPa | 0 mm | - | 239 W/m² | - |
| 1777753113 | 18.89° C | 34% | 1013.2 hPa | 0 mm | - | 213 W/m² | - |
| 1777752809 | 17.78° C | 36% | 1013.4 hPa | 0 mm | - | 486 W/m² | - |
| 1777752506 | 17.78° C | 34% | 1013.5 hPa | 0 mm | - | 531 W/m² | - |
| 1777752201 | 17.78° C | 34% | 1013.6 hPa | 0 mm | - | 593 W/m² | - |
| 1777751900 | 17.78° C | 33% | 1013.6 hPa | 0 mm | - | 609 W/m² | - |
| 1777751596 | 17.78° C | 34% | 1013.8 hPa | 0 mm | - | 617 W/m² | - |
| 1777751293 | 17.78° C | 37% | 1013.8 hPa | 0 mm | - | 587 W/m² | - |
| 1777750990 | 17.78° C | 35% | 1013.9 hPa | 0 mm | - | 586 W/m² | - |
| 1777750685 | 17.22° C | 36% | 1014.3 hPa | 0 mm | - | 600 W/m² | - |
| 1777750383 | 17.22° C | 33% | 1014 hPa | 0 mm | - | 400 W/m² | - |
| 1777750078 | 17.22° C | 34% | 1014.4 hPa | 0 mm | - | 593 W/m² | - |
* Rain latest hour (hover to see other rain measurements)
** Current wind speed in m/s (hover to see current wind gust speed)